Simultaneous Nadir Overpasses (SNOs) Predictions

Prediction of SNOs between GOES-16 and FY3D Satellite Orbit:

Table of predicted SNOs for the next 14.0 days since TLE Epoch: 10/12/2024
Index Date Time (GOES-16) GOES-16 Lat,Lon FY3D Lat,Lon Distance(km) Time Diff (sec)
1 10/12/2024 19:36:45 -0.03, -75.21 0.33, -73.53 190.44 80
2 10/14/2024 07:56:00 0.02, -75.21 0.86, -78.80 409.22 80
3 10/15/2024 07:40:01 0.02, -75.22 -0.22, -74.28 107.88 80
4 10/16/2024 19:59:25 -0.02, -75.24 -0.99, -79.58 493.93 80
5 10/17/2024 19:43:25 -0.02, -75.25 0.05, -75.05 23.80 80
6 10/20/2024 07:44:00 0.02, -75.28 0.11, -75.78 57.07 80
7 10/21/2024 07:28:00 0.02, -75.29 -0.88, -71.25 460.72 80
8 10/22/2024 19:47:22 -0.02, -75.32 -0.32, -76.54 140.02 80
9 10/23/2024 19:31:22 -0.02, -75.33 0.75, -72.02 378.31 80
10 10/25/2024 07:53:17 0.01, -75.36 0.43, -77.28 218.48 80
